Vorticity
5 5 7 7 9 10 11 12 13 14 15 14 14 13 11 10 10 10 10 10 10 10 10 10 10 10 10 9 9 9 9 8 8 8 8 8 7 7 6 6 6 7 7 7 6 6 7 6 5 3 2 3
7 8 9 10 11 11 12 13 14 13 13 11 11 9 9 9 9 9 9 9 9 9 9 9 9 9 9 9 8 8 8 7 7 6 6 6 6 6 6 6 6 6 6 7 7 7 7 6 4 3 2 3
10 11 12 12 12 12 12 12 12 10 9 9 9 9 9 10 10 10 10 10 10 10 10 10 9 9 9 8 8 7 7 6 6 5 5 5 5 5 5 5 5 5 6 7 8 8 7 5 4 3 3 3
10 11 11 12 12 11 10 9 9 8 8 9 9 11 11 11 11 11 11 11 10 10 10 10 10 9 9 8 7 6 6 5 5 5 5 5 5 5 5 5 4 5 5 7 7 7 7 4 3 2 4 5
9 10 9 9 9 9 9 9 9 10 10 11 12 13 13 13 12 12 12 11 11 10 9 10 9 9 8 7 7 5 5 5 5 4 4 5 5 5 6 5 4 5 6 7 7 5 4 3 2 2 4 6
9 9 9 9 10 10 10 11 13 14 14 15 14 13 13 13 13 12 12 11 11 10 9 9 8 7 7 6 6 5 5 4 4 4 4 4 4 5 5 4 3 5 8 8 7 5 3 3 3 5 6 6
10 10 11 12 13 14 14 15 16 16 16 16 15 14 14 13 13 13 12 12 11 10 9 8 8 7 6 5 5 5 5 5 5 5 5 5 5 5 4 3 2 6 9 8 6 4 3 3 4 5 6 6
12 12 14 14 15 16 17 17 16 16 16 16 16 16 16 15 15 15 15 14 13 13 11 10 9 8 8 7 7 6 6 7 7 6 6 7 7 6 4 2 3 8 9 6 4 3 4 4 4 5 5 5
14 14 15 15 16 16 16 16 16 16 16 16 16 15 15 14 14 15 15 15 15 15 14 14 13 12 12 11 11 10 10 10 10 10 10 9 8 6 3 3 6 8 8 5 4 4 5 5 5 5 4 5
14 14 15 16 16 16 16 16 15 15 14 14 13 13 12 12 12 13 13 13 14 15 15 15 15 14 14 13 14 13 13 13 12 11 10 8 5 4 3 5 7 7 6 5 5 4 4 5 5 5 5 5
15 16 17 17 16 15 14 12 11 10 10 9 9 9 9 9 10 10 11 12 11 12 12 13 13 13 13 12 12 12 11 10 9 7 5 5 4 5 6 7 7 6 5 4 3 4 3 4 4 5 5 4
17 17 16 14 13 10 8 7 6 5 5 6 6 6 7 7 7 7 8 8 8 8 8 9 9 9 9 8 8 8 8 7 6 6 6 7 7 8 8 7 6 4 4 3 2 3 3 3 3 4 5 3
15 13 11 10 8 6 5 4 4 4 4 4 5 5 6 6 6 6 6 6 6 6 6 7 7 7 7 7 7 7 8 8 8 9 9 8 8 7 6 5 4 3 2 2 3 3 3 3 3 3 4 4
10 8 7 6 5 4 3 4 4 4 5 5 5 5 6 6 6 6 6 7 6 7 7 7 7 7 7 7 7 7 8 8 7 8 8 7 6 4 4 3 2 2 1 2 3 3 4 3 4 3 3 4
6 5 4 3 3 3 4 5 5 5 6 6 6 6 6 6 5 5 5 5 5 5 6 6 6 6 6 6 6 6 6 6 6 5 6 5 5 4 3 3 2 2 1 2 3 3 3 3 3 4 4 4
4 3 3 3 4 5 5 6 6 6 6 6 5 5 4 4 3 3 3 3 3 3 3 3 3 3 3 3 3 3 3 3 3 3 3 3 3 3 3 4 4 4 4 3 4 4 4 4 4 4 4 5
3 3 4 5 5 5 5 5 5 5 5 4 3 2 2 2 2 2 1 1 1 1 1 1 1 2 1 2 2 2 2 2 2 2 2 3 3 3 3 4 4 4 4 4 4 4 4 5 5 5 6 5
4 5 6 6 6 5 5 5 4 3 3 2 2 1 1 1 1 1 1 1 1 1 2 2 1 2 2 2 2 2 2 2 3 3 3 4 4 4 4 4 5 5 5 5 5 5 5 6 6 6 7 7
6 6 6 6 6 5 5 5 4 3 3 2 2 1 1 1 1 1 1 1 2 2 2 2 2 2 2 2 2 2 3 2 2 3 3 3 3 4 5 5 6 6 6 7 6 7 8 8 7 7 8 9
6 6 6 6 6 5 5 4 4 4 3 3 2 2 1 1 1 1 1 2 2 2 2 3 2 3 3 3 3 3 4 4 4 4 5 6 7 7 8 9 9 9 9 8 7 8 9 10 9 8 8 9
5 6 6 6 5 5 5 4 4 4 4 4 3 3 2 2 2 2 2 3 3 4 4 4 4 4 4 4 5 5 6 7 7 8 9 10 11 11 11 11 11 11 11 10 8 8 9 10 10 8 8 8
3 5 5 5 5 5 5 5 4 4 4 4 4 4 4 3 3 3 4 4 5 6 6 7 7 8 9 9 9 10 10 10 10 10 10 10 10 11 11 10 11 11 11 10 9 9 9 9 10 9 9 9
0 3 4 5 6 5 5 5 4 5 4 5 5 4 4 4 4 5 5 6 7 8 9 9 10 10 10 11 10 10 9 9 9 9 9 9 8 8 9 9 9 8 9 9 9 9 10 10 10 10 10 10
-0 3 5 5 6 5 5 5 5 5 5 5 5 5 5 5 6 7 8 9 10 10 11 10 10 9 8 8 8 7 7 6 7 7 7 8 7 7 7 7 8 8 8 7 7 8 8 9 9 10 10 10
1 3 4 5 6 6 6 6 5 6 5 5 5 6 6 7 8 9 10 10 10 10 9 9 8 8 8 8 8 8 7 7 8 8 8 9 9 9 9 9 9 9 9 8 8 8 7 7 7 8 9 9
3 4 6 6 6 6 5 6 6 5 5 4 5 6 7 9 9 9 9 8 8 8 7 7 7 7 8 8 8 9 10 10 10 11 10 10 10 10 10 10 9 9 9 9 8 8 7 7 7 7 7 7
6 7 8 7 6 6 6 6 6 5 7 7 8 8 8 9 9 8 8 7 7 7 8 8 8 8 9 9 10 10 10 10 9 9 9 9 9 9 8 8 9 9 8 9 8 8 8 6 6 7 6 6
8 7 7 7 7 7 6 5 6 8 10 11 11 10 9 8 8 7 7 7 7 8 8 8 8 9 9 10 10 9 9 8 8 8 8 9 9 8 9 9 9 9 9 10 10 9 8 8 7 6 6 7
7 7 8 7 6 6 6 7 9 10 10 10 10 9 9 8 7 7 7 7 8 8 9 9 9 9 9 9 8 8 9 9 9 9 8 8 8 8 8 8 7 8 9 9 9 9 9 9 9 7 7 8
8 7 6 5 5 6 8 9 10 10 8 8 8 8 8 7 7 7 7 7 8 9 10 10 10 9 8 8 8 9 9 10 10 9 9 8 8 9 8 9 9 9 10 10 10 11 12 11 11 11 10 9
6 5 5 6 8 8 9 8 7 8 8 8 8 7 7 7 8 8 9 9 10 10 10 9 9 8 9 9 9 10 9 9 9 9 10 11 11 11 11 11 12 12 12 13 14 14 14 14 13 14 13 12
Height
5771 5769 5767 5765 5763 5762 5760 5759 5757 5755 5754 5753 5752 5752 5751 5750 5749 5748 5748 5747 5747 5746 5746 5746 5745 5746 5746 5746 5747 5747 5748 5748 5748 5749 5749 5750 5750 5751 5751 5751 5752 5753 5754 5755 5757 5758 5758 5759 5760 5762 5762 5762
5764 5763 5761 5759 5757 5755 5754 5752 5751 5749 5748 5747 5747 5746 5745 5744 5743 5743 5742 5742 5741 5741 5741 5741 5740 5740 5741 5741 5742 5742 5742 5743 5743 5743 5744 5745 5745 5746 5746 5747 5747 5747 5748 5748 5750 5751 5752 5753 5753 5755 5756 5757
5757 5756 5754 5753 5751 5749 5747 5746 5745 5743 5742 5741 5740 5740 5739 5738 5737 5737 5736 5736 5736 5735 5735 5735 5735 5735 5735 5736 5736 5737 5737 5738 5738 5738 5739 5739 5740 5741 5741 5741 5742 5743 5743 5743 5743 5744 5745 5746 5747 5748 5749 5750
5752 5750 5748 5747 5745 5743 5742 5740 5739 5738 5737 5735 5734 5734 5733 5732 5732 5731 5730 5730 5729 5729 5729 5730 5730 5730 5730 5730 5731 5731 5731 5732 5732 5733 5733 5734 5734 5735 5735 5736 5736 5737 5738 5738 5738 5738 5738 5739 5740 5741 5742 5743
5747 5744 5743 5741 5739 5737 5736 5735 5733 5732 5731 5730 5728 5728 5727 5726 5726 5725 5724 5724 5723 5723 5723 5723 5724 5724 5724 5724 5725 5725 5725 5726 5726 5727 5727 5728 5729 5729 5729 5730 5730 5731 5731 5732 5732 5732 5733 5733 5733 5734 5735 5736
5741 5739 5737 5736 5734 5732 5731 5729 5728 5726 5725 5724 5723 5722 5721 5720 5720 5719 5719 5718 5718 5717 5717 5717 5718 5718 5718 5719 5719 5719 5720 5720 5720 5721 5721 5722 5722 5723 5723 5724 5724 5725 5725 5725 5726 5726 5726 5727 5727 5727 5728 5728
5736 5734 5732 5730 5728 5726 5725 5724 5722 5721 5720 5719 5717 5716 5715 5715 5714 5714 5713 5713 5712 5712 5712 5712 5712 5712 5712 5713 5713 5713 5714 5714 5714 5714 5715 5716 5716 5717 5718 5718 5718 5718 5718 5719 5719 5719 5719 5720 5720 5721 5721 5722
5730 5728 5726 5724 5723 5721 5720 5718 5717 5716 5715 5714 5713 5712 5711 5710 5709 5708 5708 5708 5707 5707 5707 5706 5706 5706 5706 5707 5707 5708 5708 5708 5708 5708 5709 5709 5710 5711 5712 5712 5712 5712 5712 5712 5712 5712 5712 5713 5713 5714 5715 5715
5724 5722 5720 5719 5718 5716 5715 5713 5712 5711 5710 5709 5708 5707 5706 5705 5704 5704 5703 5703 5702 5702 5701 5701 5701 5700 5701 5701 5701 5702 5702 5702 5702 5702 5703 5703 5704 5704 5705 5706 5706 5706 5705 5705 5705 5705 5705 5705 5706 5706 5707 5708
5718 5717 5715 5714 5712 5711 5710 5709 5707 5706 5705 5704 5704 5703 5702 5701 5700 5699 5698 5698 5697 5697 5696 5696 5695 5695 5695 5695 5695 5696 5696 5696 5696 5696 5697 5697 5697 5698 5698 5698 5699 5699 5699 5699 5699 5699 5698 5698 5698 5698 5699 5700
5713 5711 5710 5709 5707 5706 5705 5704 5703 5702 5701 5700 5699 5698 5698 5697 5695 5694 5694 5693 5693 5692 5692 5691 5691 5690 5690 5690 5690 5690 5690 5690 5690 5690 5690 5690 5690 5691 5691 5691 5691 5692 5692 5692 5692 5692 5691 5691 5691 5691 5691 5692
5708 5706 5705 5704 5703 5701 5700 5699 5698 5697 5696 5695 5694 5693 5693 5692 5691 5690 5689 5688 5688 5687 5687 5686 5686 5685 5685 5684 5684 5684 5684 5684 5684 5684 5684 5684 5684 5684 5684 5684 5684 5684 5684 5684 5685 5685 5684 5684 5684 5683 5683 5683
5703 5701 5700 5699 5698 5697 5695 5694 5693 5692 5691 5690 5689 5688 5687 5686 5685 5684 5683 5683 5682 5682 5681 5681 5680 5679 5679 5679 5678 5678 5678 5678 5678 5677 5677 5677 5677 5677 5677 5677 5677 5677 5677 5677 5677 5677 5677 5677 5677 5676 5675 5675
5698 5697 5695 5694 5693 5692 5691 5689 5688 5687 5685 5684 5683 5682 5681 5680 5679 5678 5677 5677 5676 5676 5675 5675 5674 5673 5673 5672 5672 5672 5671 5671 5671 5670 5670 5670 5670 5670 5670 5669 5669 5669 5669 5669 5668 5669 5669 5669 5668 5668 5668 5667
5694 5692 5691 5689 5688 5687 5685 5684 5683 5681 5680 5678 5677 5676 5675 5674 5673 5672 5671 5670 5670 5669 5669 5668 5668 5667 5666 5666 5665 5665 5665 5664 5663 5663 5663 5662 5662 5662 5662 5661 5661 5661 5661 5661 5660 5660 5660 5660 5660 5659 5659 5659
5689 5687 5686 5684 5683 5682 5680 5679 5678 5676 5674 5673 5672 5670 5669 5668 5667 5666 5665 5664 5663 5662 5662 5662 5661 5660 5659 5658 5658 5657 5657 5656 5655 5655 5654 5654 5654 5654 5653 5653 5652 5652 5653 5652 5651 5651 5651 5651 5650 5650 5650 5649
5683 5682 5681 5679 5678 5676 5675 5674 5672 5671 5669 5667 5666 5664 5663 5662 5661 5659 5658 5657 5656 5655 5654 5654 5654 5653 5652 5651 5650 5649 5648 5648 5647 5646 5646 5645 5645 5645 5644 5644 5643 5643 5643 5642 5642 5642 5641 5641 5640 5640 5640 5639
5678 5677 5675 5674 5672 5671 5670 5668 5667 5665 5663 5662 5660 5658 5657 5656 5654 5653 5651 5650 5648 5648 5646 5646 5645 5645 5644 5643 5642 5641 5640 5639 5638 5637 5637 5636 5636 5635 5635 5634 5633 5633 5633 5632 5632 5631 5631 5631 5630 5630 5629 5629
5672 5671 5670 5668 5667 5665 5664 5663 5661 5659 5658 5656 5654 5652 5651 5649 5648 5646 5644 5643 5641 5639 5638 5637 5636 5636 5635 5634 5633 5632 5631 5630 5629 5628 5627 5626 5626 5625 5624 5624 5623 5622 5622 5621 5621 5620 5620 5619 5619 5619 5618 5618
5667 5665 5664 5662 5661 5659 5658 5656 5655 5653 5651 5649 5647 5646 5644 5642 5641 5639 5637 5635 5633 5631 5629 5628 5627 5626 5626 5625 5624 5623 5621 5620 5619 5618 5617 5616 5615 5615 5614 5613 5612 5611 5610 5610 5610 5609 5608 5608 5608 5608 5607 5607
5661 5659 5657 5656 5654 5653 5651 5649 5648 5646 5644 5642 5640 5639 5636 5635 5633 5631 5629 5627 5625 5623 5621 5619 5618 5616 5615 5615 5614 5613 5611 5609 5608 5607 5606 5605 5603 5603 5603 5601 5600 5599 5598 5599 5598 5598 5596 5596 5596 5596 5595 5596
5654 5652 5650 5648 5646 5645 5643 5642 5640 5638 5637 5635 5633 5631 5628 5626 5624 5622 5620 5618 5616 5614 5612 5610 5608 5606 5604 5604 5603 5602 5601 5598 5597 5595 5594 5593 5592 5591 5591 5590 5588 5587 5586 5587 5587 5586 5585 5584 5584 5584 5584 5584
5647 5645 5643 5641 5639 5637 5635 5633 5632 5630 5628 5627 5624 5622 5620 5618 5616 5613 5611 5609 5606 5604 5602 5600 5598 5595 5593 5592 5591 5591 5590 5587 5586 5584 5583 5581 5580 5579 5578 5577 5576 5575 5574 5575 5575 5574 5573 5572 5572 5572 5572 5572
5640 5638 5636 5634 5631 5629 5627 5625 5623 5621 5619 5618 5616 5613 5611 5609 5606 5604 5601 5599 5596 5594 5592 5589 5587 5585 5582 5580 5579 5579 5578 5576 5574 5573 5571 5569 5568 5567 5566 5565 5563 5562 5562 5563 5563 5562 5561 5561 5560 5559 5559 5560
5633 5631 5629 5627 5625 5623 5620 5618 5615 5613 5610 5608 5607 5605 5602 5600 5597 5595 5592 5589 5586 5584 5582 5579 5577 5574 5572 5569 5567 5566 5565 5564 5563 5561 5560 5558 5557 5556 5555 5555 5552 5549 5549 5551 5551 5549 5549 5549 5547 5547 5548 5548
5626 5623 5621 5619 5617 5615 5613 5610 5607 5605 5602 5600 5598 5595 5593 5591 5588 5586 5583 5580 5577 5575 5572 5570 5567 5564 5562 5559 5556 5555 5554 5552 5551 5549 5548 5546 5546 5545 5543 5543 5541 5536 5536 5538 5538 5536 5537 5538 5535 5534 5536 5536
5618 5615 5613 5610 5608 5606 5604 5601 5598 5596 5593 5590 5588 5585 5583 5580 5578 5576 5573 5570 5567 5565 5562 5560 5557 5554 5552 5549 5546 5545 5543 5541 5539 5537 5535 5533 5533 5532 5531 5531 5529 5524 5522 5524 5524 5522 5524 5525 5523 5521 5522 5524
5611 5608 5605 5602 5599 5597 5594 5591 5588 5586 5583 5579 5577 5574 5572 5569 5567 5565 5562 5560 5557 5554 5551 5549 5546 5543 5541 5538 5536 5534 5532 5530 5527 5525 5522 5520 5519 5518 5518 5517 5515 5512 5509 5509 5509 5508 5510 5510 5510 5510 5509 5510
5604 5601 5598 5595 5592 5588 5585 5582 5578 5576 5573 5570 5566 5564 5561 5558 5556 5554 5552 5549 5546 5544 5541 5538 5535 5533 5530 5527 5524 5521 5520 5518 5515 5513 5510 5507 5505 5504 5503 5502 5502 5499 5495 5493 5493 5493 5495 5494 5494 5497 5497 5496
5595 5592 5589 5586 5583 5579 5576 5573 5570 5566 5564 5561 5558 5555 5551 5548 5546 5544 5542 5539 5537 5534 5531 5528 5525 5522 5519 5516 5513 5510 5508 5506 5503 5500 5497 5494 5491 5490 5488 5485 5486 5487 5481 5477 5478 5478 5478 5478 5478 5481 5483 5483
5585 5582 5580 5577 5574 5570 5567 5564 5561 5558 5555 5552 5549 5546 5543 5539 5536 5533 5531 5529 5526 5523 5520 5517 5514 5511 5508 5505 5501 5498 5496 5493 5489 5486 5483 5480 5477 5475 5473 5470 5470 5471 5466 5461 5464 5464 5462 5462 5462 5464 5467 5469